FALCONSAT-7 (44347 NORAD) Tracking and Keplerian Element Data

This shows tracking and keplerian element data for the satellite.

Feedback or suggestion? Click here.




ElementValue
Catalog44347
NameFALCONSAT-7
Epoch Orbit4258
Epoch Day93.80777006
Epoch Year2020
RAAN143.1144
Inclination28.5286
Eccentricity0.0319209
Argument of Perigee246.6996
Mean Anonmoly109.9693
Mean Motion15.14463604
Decay Rate0.0006139
L11 44347U 19036J 20093.80777006 .00061390 00000-0 83078-3 0 9998
L22 44347 28.5286 143.1144 0319209 246.6996 109.9693 15.14463604 42589

Live tracking and technical data element details for FALCONSAT-7 (NORAD 44347). FALCONSAT-7 can be tracked NOW for your location showing map with azimuth and elevation plus other details from your city location.

Track the satellite on the map from your city or location and see movement details for azimuth, elevation, latitude, longitude, range, height, and movement on the map or in text.







IsCatalogInMostPopularTable: catalog: 44347, numindb: 59
Update: records affected: 1



GetName: 44347 FALCONSAT-7

Hit Count: updated at: Thu, 09 Apr 2020 06:54:26 GMT